Location: Pianadetto
(44.4000°N, 10.1000°E)
Time: 23:28:01
(UTC+00:00)

ATLAS 5 CENTAUR R/B - Pass Details

Date: 26 May 2022
Orbit: 342 x 13895 km, 60.8° (Epoch: 01 July)

Event Time Altitude Azimuth Distance (km) Brightness Sun altitude
Rises 00:07:35 0° 318° (NW) 8,005 8.2 -23.5°
Reaches altitude 10° 00:14:50 10° 317° (NW) 5,158 7.1 -23.2°
Maximum altitude 00:25:07 58° 241° (WSW) 1,007 2.8 -22.7°
Enters shadow 00:25:43 54° 209° (SSW) 971 2.6 -22.6°
